243P/NEAT (2018)

Japanese version
Home page
Updated on October 8, 2017

---------------------------------------------------------------------

* Profile

* Orbital Elements

Epoch 2018 Aug. 30.0 TT = JDT 2458360.5
T 2018 Aug. 26.03614 TT                                 MPC
q   2.4544576            (2000.0)            P               Q
n   0.13144832     Peri.  283.55942     +0.97226809     -0.19246381
a   3.8308871      Node    87.65867     +0.23023383     +0.88747325
e   0.3592978      Incl.    7.64145     -0.04107480     +0.41874683
P   7.50
From 307 observations 2003 Aug. 1-2012 Jan. 26, mean residual 0".6.

* Finding Charts

* Magnitudes Graph

        m1 = 4.2 + 5 log d + 30 log r

---------------------------------------------------------------------

The orbital elements are published on M.P.E.C. 2013-B90.
The charts are made with StellaNavigator Ver.10 (AstroArts).
The magnitudes graphs are made with Comet for Windows.

---------------------------------------------------------------------

Copyright(C) Seiichi Yoshida (comet@aerith.net). All rights reserved.